Weather History for KLIT - June, 2013

Change the Weather History Date:

Sunday, June 9, 2013

  Actual Average Record
Temperature  
Mean Temperature 76 °F 78 °F  
Max Temperature 83 °F 88 °F 100 °F (1963)
Min Temperature 68 °F 68 °F 56 °F (1930)
Degree Days  
Heating Degree Days 0 0  
Month to date heating degree days 0 0  
Since 1 June heating degree days 0 0  
Since 1 July heating degree days 3045 3052  
Cooling Degree Days 11 13  
Month to date cooling degree days 71 107  
Year to date cooling degree days 322 388  
Since 1 June cooling degree days 71 107  
Growing Degree Days 25 (Base 50)    
Moisture  
Dew Point 66 °F    
Average Humidity 76    
Maximum Humidity 93    
Minimum Humidity 58    
Precipitation  
Precipitation T in 0.12 in 2.14 in (1910)
Month to date precipitation 1.44 1.19  
Year to date precipitation 26.89 23.09  
Snow  
Snow 0.00 in 0.00 in - ()
Month to date snowfall 0.0 0.0  
Since 1 June snowfall 0.0 0.0  
Since 1 July snowfall 10.9 3.5  
Snow Depth 0.00 in    
Sea Level Pressure  
Sea Level Pressure 29.90 in    
Wind  
Wind Speed 6 mph (SSW)    
Max Wind Speed 22 mph    
Max Gust Speed 31 mph    
Visibility 9 miles    
Events Rain    
T = Trace of Precipitation, MM = Missing Value Source: NWS Daily Summary

Daily Weather History Graph

Daily Weather History Graph

Search for Another Location

Airport or City:

Trip Planner

Search our weather history database for the weather conditions in past years. The results will help you decide how hot, cold, wet, or windy it might be!

Date:

Astronomy

Jun. 09, 2013 Rise Set
Actual Time 5:55 AM CDT 8:21 PM CDT
Civil Twilight 5:25 AM CDT 8:50 PM CDT
Nautical Twilight 4:49 AM CDT 9:27 PM CDT
Astronomical Twilight 4:09 AM CDT 10:07 PM CDT
Moon 6:49 AM CDT (6/9) 9:11 PM CDT (6/9)
Length of Visible Light 15h 24m
Length of Day
14h 26m
New Moon, 1% of the Moon is Illuminated
Jun 9
New Moon
Jun 16
First Quarter
Jun 23
Full
Jun 29
Last Quarter
Jul 8
New

Hourly Weather History & Observations

Time (CDT) Temp. Heat Index Dew Point Humidity Pressure Visibility Wind Dir Wind Speed Gust Speed Precip Events Conditions
12:53 AM 69.1 °F - 62.1 °F 78% 29.94 in 10.0 mi Calm Calm - N/A   Scattered Clouds
1:53 AM 69.1 °F - 62.1 °F 78% 29.94 in 10.0 mi SSE 3.5 mph - N/A   Scattered Clouds
2:53 AM 69.1 °F - 63.0 °F 81% 29.94 in 10.0 mi Calm Calm - N/A   Mostly Cloudy
3:53 AM 66.0 °F - 63.0 °F 90% 29.93 in 10.0 mi Calm Calm - N/A   Mostly Cloudy
4:53 AM 66.0 °F - 63.0 °F 90% 29.92 in 10.0 mi Calm Calm - N/A   Scattered Clouds
5:53 AM 66.9 °F - 64.9 °F 93% 29.92 in 10.0 mi Calm Calm - N/A   Mostly Cloudy
6:53 AM 69.1 °F - 64.9 °F 87% 29.91 in 10.0 mi South 5.8 mph - N/A   Mostly Cloudy
7:53 AM 72.0 °F - 64.9 °F 78% 29.91 in 10.0 mi SSW 15.0 mph - N/A   Mostly Cloudy
8:53 AM 75.0 °F - 66.9 °F 76% 29.91 in 10.0 mi SW 11.5 mph - N/A   Mostly Cloudy
9:53 AM 79.0 °F - 69.1 °F 72% 29.92 in 10.0 mi SSW 10.4 mph - N/A   Mostly Cloudy
10:53 AM 82.0 °F 84.9 °F 68.0 °F 62% 29.92 in 10.0 mi SW 9.2 mph - N/A   Mostly Cloudy
11:53 AM 82.0 °F 84.9 °F 68.0 °F 62% 29.91 in 10.0 mi SW 11.5 mph - N/A   Mostly Cloudy
12:53 PM 84.0 °F 87.0 °F 68.0 °F 58% 29.89 in 10.0 mi WSW 10.4 mph - N/A   Mostly Cloudy
1:14 PM 78.8 °F - 69.8 °F 74% 29.89 in 2.5 mi WSW 16.1 mph 23.0 mph 0.01 in Rain Rain
1:18 PM 73.4 °F - 69.8 °F 88% 29.90 in 1.0 mi WSW 21.9 mph 31.1 mph 0.09 in Rain Rain
1:21 PM 71.6 °F - 64.4 °F 78% 29.91 in 0.8 mi SW 12.7 mph 31.1 mph 0.14 in Rain Heavy Rain
1:25 PM 69.8 °F - 64.4 °F 83% 29.90 in 6.0 mi SSW 8.1 mph 31.1 mph 0.24 in Rain Light Rain
1:53 PM 72.0 °F - 66.9 °F 84% 29.90 in 10.0 mi South 5.8 mph - 0.24 in   Overcast
2:03 PM 73.4 °F - 66.2 °F 78% 29.89 in 10.0 mi SSE 11.5 mph - N/A   Overcast
2:53 PM 78.1 °F - 72.0 °F 81% 29.87 in 10.0 mi Calm Calm - N/A   Mostly Cloudy
3:53 PM 80.1 °F 82.9 °F 69.1 °F 69% 29.87 in 10.0 mi WSW 8.1 mph - N/A   Mostly Cloudy
4:53 PM 82.9 °F 85.8 °F 68.0 °F 60% 29.86 in 10.0 mi WSW 9.2 mph - N/A   Scattered Clouds
5:53 PM 82.0 °F 85.5 °F 69.1 °F 65% 29.85 in 10.0 mi SW 9.2 mph - N/A   Scattered Clouds
6:53 PM 81.0 °F 83.3 °F 66.9 °F 62% 29.85 in 10.0 mi SW 8.1 mph - N/A   Scattered Clouds
7:53 PM 79.0 °F - 68.0 °F 69% 29.86 in 10.0 mi SW 6.9 mph - N/A   Scattered Clouds
8:53 PM 75.0 °F - 64.9 °F 71% 29.87 in 10.0 mi ENE 10.4 mph - N/A   Scattered Clouds
9:53 PM 72.0 °F - 63.0 °F 73% 29.89 in 10.0 mi SSE 8.1 mph - N/A   Scattered Clouds
10:53 PM 71.1 °F - 64.0 °F 78% 29.91 in 10.0 mi South 3.5 mph - N/A   Clear
11:53 PM 70.0 °F - 64.0 °F 81% 29.91 in 10.0 mi Calm Calm - N/A   Clear